ASTRA 3B

Last updated on Thu Jul 03 2025 00:02:45 GMT+0000 (Coordinated Universal Time)

1 36581U 10021A 25183.57126984 .00000144 00000+0 00000+0 0 9995 2 36581 0.5637 88.6115 0003752 5.8705 55.5203 1.00270413 55364
UTC large
Height (km)
Speed (km/s)
/
Latitude / Longitude
Inclination (degrees)
Orbital Period (minutes)
Azimuth
Elevation
Range (km)
Doppler Factor

Next 0 passes for location: London (51.5072 / 0.1276)

Sorry there are no passes over London.